PBO Station Position Time Series. Reference Frame : NAM14
Format Version,1.1.1
4-character ID,P437
Station name,Whidbey_S_WA2007
Begin Date, 2007-09-07
End Date, 2023-06-26
Release Date, 2023-06-27
Reference position, 48.0018093477 North Latitude, -122.4591577184 East Longitude, 12.46932 meters elevation,
Date, North (mm), East (mm), Vertical (mm), North Std. Deviation (mm), East Std. Deviation (mm),              Vertical Std. Deviation (mm), Quality,
2007-09-07,0.00, 0.00, 0.00, 2.34, 1.62, 7.26, repro,
2007-09-08,-0.19, -0.45, -8.97, 2.37, 1.65, 7.30, repro,
2007-09-09,-0.91, 0.52, -9.86, 2.50, 1.76, 7.78, repro,
2007-09-10,-0.56, 1.23, -10.22, 2.33, 1.61, 7.16, repro,
2007-09-11,1.05, 0.42, -6.34, 2.32, 1.61, 7.16, repro,
2007-09-12,1.52, 0.20, -7.12, 2.34, 1.64, 7.29, repro,
2007-09-13,1.19, 1.55, -15.05, 2.32, 1.63, 7.21, repro,
2007-09-14,0.53, -0.91, -5.70, 2.39, 1.66, 7.48, repro,
2007-09-15,-0.65, -0.92, -5.16, 2.49, 1.72, 7.79, repro,
2007-09-16,-1.16, -0.37, -3.44, 2.35, 1.64, 7.34, repro,
2007-09-17,1.19, -0.01, -2.70, 2.36, 1.67, 7.47, repro,
2007-09-18,0.07, -0.14, -10.92, 2.36, 1.72, 7.45, repro,
2007-09-19,0.06, -0.12, -11.93, 2.24, 1.56, 6.97, repro,
2007-09-20,-0.25, -0.92, -7.68, 2.30, 1.60, 7.13, repro,
2007-09-21,-0.13, 1.22, -13.62, 2.34, 1.61, 7.31, repro,
2007-09-22,-0.43, 0.87, -8.49, 2.30, 1.56, 7.04, repro,
2007-09-23,1.48, 0.61, -13.33, 2.35, 1.61, 7.18, repro,
2007-09-24,-0.18, 1.21, -14.49, 2.38, 1.61, 7.31, repro,
2007-09-25,-0.81, 1.19, -8.23, 2.31, 1.58, 7.17, repro,
2007-09-26,0.04, 0.20, -6.30, 2.29, 1.57, 7.07, repro,
2007-09-27,0.49, 1.60, -8.37, 2.33, 1.58, 7.21, repro,
2007-09-28,0.11, 1.09, -1.66, 2.28, 1.58, 7.05, repro,
2007-09-29,1.42, 1.36, -6.87, 2.27, 1.57, 7.02, repro,
2007-09-30,-0.28, 0.11, -0.75, 2.27, 1.58, 7.04, repro,
2007-10-01,1.20, 0.20, -8.88, 2.40, 1.70, 7.44, repro,
2007-10-02,0.01, 2.90, -1.86, 2.40, 1.69, 7.54, repro,
2007-10-03,-0.19, 0.66, -5.08, 2.40, 1.64, 7.53, repro,
2007-10-04,0.91, 1.57, -10.24, 2.41, 1.64, 7.49, repro,
2007-10-05,0.02, 0.96, -7.00, 2.42, 1.71, 7.61, repro,
2007-10-06,0.41, 1.25, -8.11, 2.36, 1.65, 7.34, repro,
2007-10-07,-0.10, 2.74, -5.46, 2.39, 1.65, 7.32, repro,
2007-10-08,-0.22, 2.24, -7.09, 2.54, 1.70, 7.79, repro,
2007-10-09,1.20, 0.52, -5.43, 2.55, 1.83, 8.03, repro,
2007-10-10,0.41, 0.92, -9.76, 2.59, 1.73, 7.95, repro,
2007-10-11,1.15, 1.38, -13.01, 2.41, 1.71, 7.49, repro,
2007-10-12,1.87, 0.75, -4.75, 2.37, 1.61, 7.13, repro,
2007-10-13,-0.42, 1.26, -6.74, 2.28, 1.59, 7.09, repro,
2007-10-14,-0.94, -0.00, -9.57, 2.29, 1.59, 7.10, repro,
2007-10-15,-0.52, 0.93, -6.35, 2.25, 1.58, 6.99, repro,
2007-10-16,-0.55, 0.14, -3.24, 2.23, 1.55, 6.92, repro,
2007-10-17,0.82, 1.28, -6.83, 2.30, 1.59, 7.12, repro,
2007-10-18,0.65, 1.06, -1.19, 2.46, 1.70, 7.54, repro,
2007-10-19,3.29, -0.29, -8.64, 2.28, 1.59, 7.12, repro,
2007-10-20,0.57, 1.35, 0.69, 2.26, 1.59, 7.06, repro,
2007-10-21,-0.31, 0.28, -12.36, 2.26, 1.58, 7.02, repro,
2007-10-22,-0.64, 1.72, -10.46, 2.26, 1.56, 7.07, repro,
2007-10-23,2.88, 1.84, -15.84, 2.53, 1.69, 7.50, repro,
2007-10-24,1.58, 0.74, -8.67, 2.31, 1.62, 7.26, repro,
2007-10-25,0.91, 0.82, -13.78, 2.28, 1.58, 7.05, repro,
2007-10-26,0.20, 1.05, -20.07, 2.35, 1.68, 7.40, repro,
2007-10-27,0.46, 0.58, -20.40, 2.27, 1.59, 7.06, repro,
2007-10-28,1.76, 1.08, -18.73, 2.27, 1.58, 7.06, repro,
2007-10-29,3.54, 0.97, -14.46, 2.29, 1.60, 7.18, repro,
2007-10-30,1.20, 1.76, -18.97, 2.28, 1.59, 7.11, repro,
2007-10-31,0.30, 1.18, -14.51, 2.32, 1.64, 7.24, repro,
2007-11-01,0.52, 0.98, -13.51, 2.22, 1.55, 6.93, repro,
2007-11-02,1.04, 0.82, -17.24, 2.34, 1.67, 7.28, repro,
2007-11-03,2.43, 0.50, -14.79, 2.23, 1.57, 6.98, repro,
2007-11-04,0.38, 2.06, -13.04, 2.26, 1.57, 7.06, repro,
2007-11-05,-0.01, 1.58, -19.98, 2.21, 1.56, 6.91, repro,
2007-11-06,1.15, 2.38, -22.27, 2.24, 1.60, 7.13, repro,
2007-11-07,0.95, 1.75, -16.16, 2.29, 1.62, 7.21, repro,
2007-11-08,1.66, 0.13, -14.33, 2.31, 1.60, 7.19, repro,
2007-11-09,4.70, 2.35, -10.97, 2.32, 1.61, 7.25, repro,
2007-11-10,1.16, 1.07, -15.57, 2.24, 1.58, 7.04, repro,
2007-11-11,0.72, 0.59, -8.41, 2.30, 1.63, 7.23, repro,
2007-11-12,3.71, 2.09, -12.90, 2.28, 1.62, 7.16, repro,
2007-11-13,1.27, 1.60, -12.72, 2.24, 1.56, 7.02, repro,
2007-11-14,-0.09, 1.49, -15.90, 2.27, 1.61, 7.12, repro,
2007-11-15,1.60, 1.47, -13.83, 2.28, 1.58, 7.07, repro,
2007-11-16,3.55, 1.46, -15.44, 2.22, 1.57, 6.99, repro,
2007-11-17,0.48, 0.31, -13.32, 2.22, 1.56, 6.95, repro,
2007-11-18,-0.51, 0.38, -15.05, 2.31, 1.66, 7.26, repro,
2007-11-19,1.62, 0.93, -10.53, 2.25, 1.57, 7.04, repro,
2007-11-20,1.44, 0.79, -19.55, 2.27, 1.59, 7.11, repro,
2007-11-21,-0.65, 1.39, -21.70, 2.24, 1.57, 7.02, repro,
2007-11-22,2.14, 1.15, -20.77, 2.23, 1.58, 6.98, repro,
2007-11-23,1.23, 1.41, -20.19, 2.27, 1.64, 7.31, repro,
2007-11-24,1.39, 0.53, -14.03, 2.31, 1.65, 7.28, repro,
2007-11-25,0.91, 1.05, -16.65, 2.31, 1.65, 7.34, repro,
2007-11-26,1.01, 2.00, -14.78, 2.28, 1.64, 7.25, repro,
2007-11-27,0.38, 2.08, -11.73, 2.31, 1.67, 7.34, repro,
2007-11-28,0.12, 1.32, -23.00, 2.30, 1.65, 7.22, repro,
2007-11-29,0.29, 1.29, -22.79, 2.33, 1.64, 7.31, repro,
2007-11-30,1.40, 0.54, -21.30, 2.30, 1.65, 7.25, repro,
2007-12-01,2.93, 1.25, -12.22, 2.30, 1.67, 7.33, repro,
2007-12-02,1.76, 1.58, -10.84, 2.28, 1.64, 7.29, repro,
2007-12-03,2.30, 0.97, -11.93, 2.39, 1.71, 7.72, repro,
2007-12-04,1.71, 1.81, -15.77, 2.41, 1.77, 7.83, repro,
2007-12-05,1.80, 1.81, -25.63, 2.38, 1.74, 7.81, repro,
2007-12-06,0.95, 1.08, -21.39, 2.44, 1.78, 7.88, repro,
2007-12-07,2.17, 0.69, -18.38, 2.36, 1.73, 7.57, repro,
2007-12-08,1.74, 0.72, -18.48, 2.33, 1.70, 7.35, repro,
2007-12-09,0.80, 1.62, -17.87, 2.53, 1.93, 8.34, repro,
2007-12-10,1.95, 1.94, -26.22, 2.34, 1.70, 7.42, repro,
2007-12-11,1.27, 1.83, -23.12, 2.29, 1.66, 7.20, repro,
2007-12-12,-0.70, 0.60, -27.52, 2.30, 1.62, 7.17, repro,
2007-12-13,0.76, 1.16, -27.20, 2.35, 1.67, 7.25, repro,
2007-12-14,0.84, 1.47, -17.56, 2.30, 1.59, 7.08, repro,
2007-12-15,1.91, 2.04, -11.72, 2.29, 1.59, 7.09, repro,
2007-12-16,1.97, 1.14, -11.86, 2.29, 1.59, 7.08, repro,
2007-12-17,3.38, 1.85, -13.16, 2.34, 1.63, 7.18, repro,
2007-12-18,2.32, 0.55, -17.04, 2.30, 1.59, 7.08, repro,
2007-12-19,2.81, 1.39, -13.72, 2.32, 1.63, 7.24, repro,
2007-12-20,2.73, 1.66, -19.31, 2.32, 1.60, 7.20, repro,
2007-12-21,-0.27, 1.40, -26.15, 2.36, 1.65, 7.31, repro,
2007-12-22,0.69, 0.30, -20.66, 2.31, 1.63, 7.23, repro,
2007-12-23,0.84, 1.91, -23.82, 2.31, 1.66, 7.35, repro,
2007-12-24,0.85, 1.03, -13.09, 2.31, 1.59, 7.14, repro,
2007-12-25,1.63, 1.21, -20.76, 2.30, 1.58, 7.07, repro,
2007-12-26,0.39, 1.16, -14.21, 2.37, 1.66, 7.32, repro,
2007-12-27,1.84, 2.13, -14.42, 2.33, 1.60, 7.25, repro,
2007-12-28,1.75, 2.01, -19.71, 2.36, 1.64, 7.40, repro,
2007-12-29,0.81, 2.35, -15.43, 2.34, 1.60, 7.24, repro,
2007-12-30,1.58, 2.38, -18.74, 2.34, 1.61, 7.29, repro,
2007-12-31,1.53, 2.26, -24.28, 2.27, 1.56, 7.04, repro,
2008-01-01,1.49, 2.82, -26.27, 2.28, 1.57, 7.11, repro,
2008-01-02,1.09, 2.71, -14.95, 2.31, 1.57, 7.17, repro,
2008-01-03,1.90, 0.88, -15.34, 2.27, 1.54, 6.99, repro,
2008-01-04,2.94, 1.08, -10.61, 2.26, 1.54, 6.98, repro,
2008-01-05,2.28, 1.34, -3.72, 2.27, 1.54, 6.97, repro,
2008-01-06,1.75, 1.25, -9.89, 2.26, 1.54, 6.90, repro,
2008-01-07,0.53, 1.89, -14.93, 2.24, 1.54, 6.92, repro,
2008-01-08,-0.35, 1.58, -17.26, 2.34, 1.57, 7.15, repro,
2008-01-09,0.90, 2.12, -17.32, 2.31, 1.56, 7.06, repro,
2008-01-10,0.32, 1.36, -15.36, 2.24, 1.54, 6.86, repro,
2008-01-11,1.36, 2.51, -16.18, 2.30, 1.60, 7.06, repro,
2008-01-12,-0.14, 1.74, -16.72, 2.23, 1.55, 6.88, repro,
2008-01-13,0.51, 2.53, -29.49, 2.26, 1.55, 6.97, repro,
2008-01-14,1.49, 1.46, -34.95, 2.26, 1.54, 6.95, repro,
2008-01-15,0.25, 1.44, -27.38, 2.24, 1.55, 6.94, repro,
2008-01-16,0.73, 2.93, -29.73, 2.27, 1.58, 7.08, repro,
2008-01-17,0.54, 2.17, -25.19, 2.27, 1.56, 7.02, repro,
2008-01-18,0.23, 1.82, -21.13, 2.25, 1.58, 7.09, repro,
2008-01-19,2.08, 2.65, -31.45, 2.26, 1.55, 6.99, repro,
2008-01-20,1.43, 2.79, -22.85, 2.36, 1.62, 7.29, repro,
2008-01-21,0.78, 3.34, -23.43, 2.23, 1.56, 6.95, repro,
2008-01-22,0.13, 3.58, -26.15, 2.23, 1.55, 6.96, repro,
2008-01-23,1.71, 3.02, -25.69, 2.21, 1.55, 6.90, repro,
2008-01-24,1.43, 3.11, -20.35, 2.23, 1.54, 6.94, repro,
2008-01-25,1.23, 2.46, -17.33, 2.24, 1.54, 6.95, repro,
2008-01-26,1.31, 2.75, -9.63, 2.24, 1.56, 7.00, repro,
2008-01-27,2.35, 3.27, -13.01, 2.22, 1.55, 6.95, repro,
2008-01-28,2.57, 2.42, -8.66, 2.21, 1.55, 6.91, repro,
2008-01-29,1.43, 1.74, -18.65, 2.31, 1.65, 7.26, repro,
2008-01-30,0.97, 1.88, -17.31, 2.34, 1.61, 7.20, repro,
2008-01-31,1.43, 2.25, -18.39, 2.26, 1.56, 7.01, repro,
2008-02-01,1.11, 3.07, -17.49, 2.29, 1.60, 7.11, repro,
2008-02-02,1.40, 3.43, -20.65, 2.27, 1.58, 7.00, repro,
2008-02-03,1.61, 2.61, -21.45, 2.21, 1.54, 6.89, repro,
2008-02-04,2.21, 2.86, -22.98, 2.22, 1.54, 6.93, repro,
2008-02-05,1.35, 3.36, -20.10, 2.28, 1.61, 7.11, repro,
2008-02-06,0.27, 3.05, -16.03, 2.39, 1.65, 7.40, repro,
2008-02-07,1.97, 3.90, -13.11, 2.26, 1.58, 7.13, repro,
2008-02-08,0.73, 2.59, -21.55, 2.22, 1.54, 6.92, repro,
2008-02-09,1.87, 3.44, -25.68, 2.26, 1.59, 7.03, repro,
2008-02-10,1.99, 4.30, -20.74, 2.21, 1.53, 6.86, repro,
2008-02-11,0.41, 3.93, -23.49, 2.25, 1.56, 7.03, repro,
2008-02-12,1.39, 3.90, -24.76, 2.24, 1.55, 6.95, repro,
2008-02-13,1.24, 2.64, -21.97, 2.22, 1.54, 6.91, repro,
2008-02-14,1.97, 2.79, -29.71, 2.20, 1.53, 6.83, repro,
2008-02-15,1.67, 3.02, -26.14, 2.24, 1.59, 7.06, repro,
2008-02-16,0.99, 2.81, -23.85, 2.37, 1.58, 7.27, repro,
2008-02-17,1.21, 3.01, -21.86, 2.29, 1.57, 7.11, repro,
2008-02-18,1.32, 3.39, -22.32, 2.24, 1.55, 6.93, repro,
2008-02-19,1.32, 3.21, -21.69, 2.24, 1.55, 6.95, repro,
2008-02-20,0.10, 3.68, -20.94, 2.22, 1.55, 6.93, repro,
2008-02-21,1.05, 3.05, -15.81, 2.22, 1.54, 6.90, repro,
2008-02-22,0.66, 3.16, -13.74, 2.29, 1.60, 7.12, repro,
2008-02-23,1.27, 2.59, -17.32, 2.23, 1.55, 6.95, repro,
2008-02-24,1.11, 3.23, -17.55, 2.23, 1.54, 6.94, repro,
2008-02-25,0.96, 3.00, -24.54, 2.24, 1.55, 6.99, repro,
2008-02-26,2.49, 3.80, -30.90, 2.22, 1.54, 6.90, repro,
2008-02-27,1.52, 3.35, -26.27, 2.35, 1.61, 7.29, repro,
2008-02-28,1.89, 3.38, -27.60, 2.23, 1.55, 6.92, repro,
2008-02-29,0.62, 1.57, -19.20, 2.24, 1.55, 6.90, repro,
2008-03-01,2.29, 3.64, -24.84, 2.24, 1.55, 6.98, repro,
2008-03-02,1.57, 3.76, -26.42, 2.23, 1.55, 6.94, repro,
2008-03-03,0.36, 2.99, -24.44, 2.29, 1.59, 7.11, repro,
2008-03-04,0.12, 2.33, -30.23, 2.26, 1.55, 6.98, repro,
2008-03-05,1.29, 3.42, -27.03, 2.28, 1.61, 7.11, repro,
2008-03-06,0.60, 3.87, -31.49, 2.21, 1.54, 6.89, repro,
2008-03-07,1.95, 3.21, -30.18, 2.24, 1.54, 6.93, repro,
2008-03-08,1.54, 4.13, -23.23, 2.26, 1.59, 7.07, repro,
2008-03-09,0.92, 4.93, -25.55, 2.23, 1.55, 6.92, repro,
2008-03-10,0.69, 2.07, -24.96, 2.25, 1.54, 6.91, repro,
2008-03-11,1.36, 3.81, -23.07, 2.23, 1.55, 6.94, repro,
2008-03-12,0.85, 2.68, -27.22, 2.24, 1.58, 6.98, repro,
2008-03-13,1.52, 3.13, -22.05, 2.25, 1.58, 7.01, repro,
2008-03-14,1.83, 2.15, -21.81, 2.31, 1.58, 7.03, repro,
2008-03-15,0.79, 2.54, -24.65, 2.22, 1.54, 6.88, repro,
2008-03-16,1.30, 4.07, -26.40, 2.33, 1.61, 7.24, repro,
2008-03-17,1.54, 3.56, -24.69, 2.38, 1.70, 7.62, repro,
2008-03-18,0.62, 3.61, -24.76, 2.30, 1.61, 7.28, repro,
2008-03-19,1.87, 4.22, -25.36, 2.26, 1.57, 7.07, repro,
2008-03-20,0.34, 2.44, -18.71, 2.32, 1.63, 7.24, repro,
2008-03-21,1.07, 3.54, -27.54, 2.32, 1.62, 7.21, repro,
2008-03-22,1.84, 2.88, -32.52, 2.27, 1.58, 7.12, repro,
2008-03-23,2.60, 3.99, -29.77, 2.24, 1.57, 7.03, repro,
2008-03-24,0.53, 3.16, -25.16, 2.27, 1.58, 7.11, repro,
2008-03-25,1.20, 3.37, -24.86, 2.29, 1.61, 7.15, repro,
2008-03-26,1.48, 3.59, -18.03, 2.31, 1.62, 7.25, repro,
2008-03-27,1.04, 2.29, -27.75, 2.29, 1.60, 7.14, repro,
2008-03-28,2.44, 3.36, -25.11, 2.24, 1.55, 6.95, repro,
2008-03-29,1.68, 3.25, -20.74, 2.35, 1.56, 7.04, repro,
2008-03-30,1.39, 2.83, -28.20, 2.27, 1.55, 7.02, repro,
2008-03-31,0.99, 4.26, -23.32, 2.27, 1.55, 7.02, repro,
2008-04-01,0.26, 3.81, -26.99, 2.26, 1.55, 7.02, repro,
2008-04-02,1.89, 3.78, -26.66, 2.31, 1.57, 7.13, repro,
2008-04-03,2.16, 3.43, -27.05, 2.23, 1.53, 6.95, repro,
2008-04-04,1.02, 2.46, -21.85, 2.26, 1.54, 6.98, repro,
2008-04-05,1.18, 2.79, -15.40, 2.26, 1.54, 6.99, repro,
2008-04-06,0.78, 3.86, -24.48, 2.26, 1.55, 7.04, repro,
2008-04-07,1.64, 4.26, -27.57, 2.25, 1.53, 6.94, repro,
2008-04-08,1.18, 2.92, -24.34, 2.24, 1.53, 6.95, repro,
2008-04-09,0.62, 2.78, -21.72, 2.26, 1.54, 7.02, repro,
2008-04-10,1.42, 3.50, -27.27, 2.34, 1.56, 7.06, repro,
2008-04-11,1.83, 3.90, -27.53, 2.25, 1.54, 6.99, repro,
2008-04-12,0.98, 4.36, -32.78, 2.26, 1.55, 7.06, repro,
2008-04-13,1.17, 2.15, -26.66, 2.27, 1.54, 7.03, repro,
2008-04-14,0.72, 2.62, -22.47, 2.25, 1.54, 7.02, repro,
2008-04-15,1.91, 2.75, -12.32, 2.31, 1.60, 7.17, repro,
2008-04-16,0.83, 2.23, -21.77, 2.33, 1.60, 7.24, repro,
2008-04-17,1.35, 2.94, -27.32, 2.31, 1.58, 7.15, repro,
2008-04-18,1.84, 2.33, -30.66, 2.25, 1.55, 7.03, repro,
2008-04-19,1.19, 3.49, -23.49, 2.26, 1.54, 7.04, repro,
2008-04-20,1.26, 3.47, -24.54, 2.30, 1.55, 7.16, repro,
2008-04-21,1.75, 3.30, -26.16, 2.28, 1.55, 7.12, repro,
2008-04-22,1.30, 4.11, -24.99, 2.28, 1.54, 7.06, repro,
2008-04-23,1.37, 3.80, -27.04, 2.28, 1.55, 7.09, repro,
2008-04-24,0.18, 3.18, -28.46, 2.34, 1.59, 7.20, repro,
2008-04-25,-0.18, 2.75, -28.36, 2.34, 1.57, 7.16, repro,
2008-04-26,0.41, 2.87, -28.88, 2.39, 1.58, 7.23, repro,
2008-04-27,1.86, 4.65, -28.86, 2.39, 1.57, 7.19, repro,
2008-04-28,1.50, 3.19, -20.77, 2.39, 1.59, 7.26, repro,
2008-04-29,1.17, 3.13, -19.67, 2.50, 1.63, 7.43, repro,
2008-04-30,1.32, 2.90, -26.74, 2.37, 1.61, 7.20, repro,
2008-05-01,0.47, 2.67, -25.90, 2.36, 1.59, 7.27, repro,
2008-05-02,0.09, 3.57, -25.65, 2.30, 1.54, 7.11, repro,
2008-05-03,1.69, 3.43, -30.00, 2.34, 1.59, 7.28, repro,
2008-05-04,0.74, 3.41, -26.82, 2.33, 1.56, 7.13, repro,
2008-05-05,0.80, 3.53, -31.50, 2.32, 1.58, 7.19, repro,
2008-05-06,-0.84, 2.02, -27.13, 2.32, 1.59, 7.18, repro,
2008-05-07,-0.66, 0.41, -24.61, 2.28, 1.54, 7.07, repro,
2008-05-08,-1.11, 0.58, -23.51, 2.30, 1.57, 7.19, repro,
2008-05-09,-0.07, 0.50, -29.62, 2.35, 1.59, 7.25, repro,
2008-05-10,0.50, 0.70, -22.86, 2.27, 1.55, 7.09, repro,
2008-05-11,-1.38, -0.70, -22.14, 2.35, 1.59, 7.24, repro,
2008-05-12,-0.93, -0.72, -22.02, 2.28, 1.53, 7.01, repro,
2008-05-13,-0.47, -0.17, -19.05, 2.34, 1.56, 7.10, repro,
2008-05-14,0.46, -0.54, -22.36, 2.47, 1.62, 7.38, repro,
2008-05-15,-0.20, 0.69, -32.98, 2.31, 1.56, 7.08, repro,
2008-05-16,-1.15, -0.58, -27.91, 2.32, 1.56, 7.10, repro,
2008-05-17,0.50, -0.43, -29.34, 2.27, 1.55, 7.12, repro,
2008-05-18,0.84, -0.75, -36.78, 2.34, 1.57, 7.15, repro,
2008-05-19,-1.08, -1.00, -25.25, 2.29, 1.53, 7.00, repro,
2008-05-20,-1.53, -1.27, -31.83, 2.28, 1.55, 7.08, repro,
2008-05-21,1.15, -1.68, -23.98, 2.26, 1.53, 7.00, repro,
2008-05-22,-0.05, -0.97, -24.40, 2.26, 1.54, 7.02, repro,
2008-05-23,-0.13, -1.52, -18.29, 2.28, 1.55, 7.12, repro,
2008-05-24,0.22, -0.76, -21.54, 2.27, 1.53, 6.96, repro,
2008-05-25,-0.37, -0.16, -21.33, 2.26, 1.55, 7.02, repro,
2008-05-26,-0.91, -0.34, -16.21, 2.27, 1.54, 7.02, repro,
2008-05-27,1.27, 0.14, -24.52, 2.35, 1.55, 7.05, repro,
2008-05-28,0.55, -1.03, -25.12, 2.25, 1.53, 6.96, repro,
2008-05-29,-0.53, -1.90, -19.45, 2.32, 1.57, 7.11, repro,
2008-05-30,0.76, -2.17, -22.28, 2.51, 1.64, 7.34, repro,
2008-05-31,-1.70, -2.16, -16.49, 2.65, 1.73, 8.04, repro,
2008-06-01,0.97, -0.96, -22.58, 2.32, 1.56, 7.08, repro,
2008-06-02,0.60, -0.78, -25.84, 2.25, 1.52, 6.91, repro,
2008-06-03,1.84, -1.56, -22.46, 2.34, 1.55, 7.13, repro,
2008-06-04,1.07, -1.06, -18.25, 2.29, 1.53, 7.06, repro,
2008-06-05,1.87, -1.24, -19.40, 2.34, 1.57, 7.21, repro,
2008-06-06,0.69, -1.24, -17.08, 2.43, 1.58, 7.17, repro,
2008-06-07,-0.62, -1.52, -20.37, 2.36, 1.61, 7.33, repro,
2008-06-08,1.49, -0.85, -25.34, 2.34, 1.59, 7.15, repro,
2008-06-09,0.99, -0.25, -23.49, 2.34, 1.61, 7.28, repro,
2008-06-10,0.58, -1.73, -23.83, 2.29, 1.53, 7.06, repro,
2008-06-11,0.93, -1.70, -28.17, 2.33, 1.57, 7.17, repro,
2008-06-12,-0.55, -0.32, -26.59, 2.29, 1.56, 7.12, repro,
2008-06-13,-0.95, -1.85, -27.52, 2.27, 1.53, 7.01, repro,
2008-06-14,1.41, -1.04, -23.10, 2.31, 1.57, 7.12, repro,
2008-06-15,1.06, -1.06, -26.31, 2.43, 1.65, 7.46, repro,
2008-06-16,0.75, -0.34, -24.46, 2.41, 1.65, 7.32, repro,
2008-06-17,-0.50, -0.28, -24.58, 2.30, 1.53, 7.03, repro,
2008-06-18,-1.81, -1.67, -25.91, 2.40, 1.59, 7.23, repro,
2008-06-19,0.18, -1.60, -24.83, 2.27, 1.58, 7.17, repro,
2008-06-20,2.43, 0.28, -28.64, 2.29, 1.56, 7.06, repro,
2008-06-21,2.11, -2.53, -26.69, 2.28, 1.53, 7.04, repro,
2008-06-22,-1.20, -1.00, -21.69, 2.36, 1.59, 7.25, repro,
2008-06-23,2.07, -0.18, -26.13, 2.32, 1.56, 7.06, repro,
2008-06-24,-1.21, -0.54, -23.93, 2.27, 1.53, 6.97, repro,
2008-06-25,-0.12, 0.07, -18.46, 2.30, 1.57, 7.11, repro,
2008-06-26,-0.77, -1.33, -19.56, 2.35, 1.65, 7.47, repro,
2008-06-27,0.23, -0.67, -19.54, 2.32, 1.57, 7.14, repro,
2008-06-28,-0.01, -0.58, -19.89, 2.39, 1.60, 7.25, repro,
2008-06-29,-0.56, -1.79, -16.88, 2.35, 1.55, 7.18, repro,
2008-06-30,0.88, -1.22, -22.33, 2.25, 1.53, 6.95, repro,
2008-07-01,1.63, -1.63, -27.09, 2.31, 1.57, 7.12, repro,
2008-07-02,2.16, -1.66, -32.49, 2.65, 1.71, 8.04, repro,
2008-07-03,1.64, -1.05, -26.75, 2.31, 1.56, 7.11, repro,
2008-07-04,0.78, -2.60, -16.11, 2.46, 1.59, 7.26, repro,
2008-07-05,1.29, -1.20, -10.58, 2.28, 1.55, 7.04, repro,
2008-07-06,1.89, -0.78, -19.87, 2.24, 1.52, 6.89, repro,
2008-07-07,-1.07, -1.33, -15.07, 2.37, 1.55, 7.03, repro,
2008-07-08,1.06, -1.57, -16.20, 2.44, 1.60, 7.25, repro,
2008-07-09,1.49, -0.78, -13.27, 2.39, 1.55, 7.09, repro,
2008-07-10,-0.57, -0.88, -8.35, 2.38, 1.59, 7.30, repro,
2008-07-11,-0.29, -1.79, -16.05, 2.35, 1.58, 7.18, repro,
2008-07-12,-0.29, -0.53, -14.82, 2.30, 1.56, 7.08, repro,
2008-07-13,0.22, -1.20, -15.08, 2.40, 1.69, 7.55, repro,
2008-07-14,0.84, 0.20, -12.13, 2.33, 1.58, 7.21, repro,
2008-07-15,1.15, -1.22, -17.06, 2.32, 1.55, 7.09, repro,
2008-07-16,0.60, -1.26, -17.41, 2.32, 1.56, 7.10, repro,
2008-07-17,0.37, -1.35, -17.18, 2.32, 1.56, 7.10, repro,
2008-07-18,0.07, -1.22, -11.89, 2.67, 1.67, 7.65, repro,
2008-07-19,0.47, 0.01, -14.34, 2.41, 1.60, 7.35, repro,
2008-07-20,0.39, -0.06, -7.12, 2.43, 1.66, 7.42, repro,
2008-07-21,-1.40, -0.36, -11.26, 2.28, 1.55, 7.00, repro,
2008-07-22,0.59, -1.94, -8.79, 2.31, 1.56, 7.05, repro,
2008-07-23,1.33, -0.66, -12.15, 2.41, 1.55, 7.13, repro,
2008-07-24,-0.37, -0.80, -14.23, 2.34, 1.58, 7.22, repro,
2008-07-25,0.25, -0.37, -17.49, 2.38, 1.60, 7.30, repro,
2008-07-26,0.82, -1.28, -14.30, 2.54, 1.69, 7.43, repro,
2008-07-27,0.25, -1.47, -9.16, 2.38, 1.59, 7.31, repro,
2008-07-28,0.83, -1.31, -10.59, 2.50, 1.59, 7.25, repro,
2008-07-29,0.54, 0.64, -8.43, 2.38, 1.57, 7.23, repro,
2008-07-30,0.45, -0.74, -9.90, 2.41, 1.58, 7.33, repro,
2008-07-31,-0.41, 0.02, -6.61, 2.40, 1.61, 7.29, repro,
2008-08-01,2.18, -0.98, -6.53, 2.35, 1.59, 7.27, repro,
2008-08-02,-0.44, -2.23, -4.41, 2.29, 1.53, 7.02, repro,
2008-08-03,0.67, -2.15, -10.81, 2.41, 1.58, 7.21, repro,
2008-08-04,0.81, -1.50, -12.96, 2.33, 1.55, 7.07, repro,
2008-08-05,-0.17, -0.79, -13.25, 2.44, 1.62, 7.39, repro,
2008-08-06,0.51, -1.25, -14.17, 2.49, 1.66, 7.35, repro,
2008-08-07,1.16, -1.46, -11.17, 2.37, 1.59, 7.26, repro,
2008-08-08,-0.67, -1.74, -11.34, 2.84, 1.79, 8.40, repro,
2008-08-09,-0.07, -2.64, -6.48, 2.36, 1.54, 7.09, repro,
2008-08-10,-0.06, -0.22, -15.46, 2.45, 1.59, 7.33, repro,
2008-08-11,0.18, -0.23, -15.36, 2.53, 1.70, 7.56, repro,
2008-08-12,-1.05, 0.12, -8.77, 2.38, 1.58, 7.22, repro,
2008-08-13,-0.20, -0.86, -10.17, 2.35, 1.56, 7.19, repro,
2008-08-14,-0.50, -0.60, -9.93, 2.35, 1.54, 7.11, repro,
2008-08-15,-0.14, -1.62, -11.14, 2.41, 1.59, 7.29, repro,
2008-08-16,-0.01, 0.12, -4.25, 2.44, 1.62, 7.36, repro,
2008-08-17,-0.26, -2.09, -6.24, 2.49, 1.64, 7.43, repro,
2008-08-18,-0.91, -1.08, -4.93, 2.37, 1.57, 7.11, repro,
2008-08-19,-1.21, -1.47, -3.74, 2.43, 1.56, 7.31, repro,
2008-08-20,3.00, -0.57, -9.60, 2.49, 1.63, 7.56, repro,
2008-08-21,-0.02, -1.02, -9.10, 2.44, 1.61, 7.31, repro,
2008-08-22,0.79, -2.89, -13.09, 2.47, 1.69, 7.46, repro,
2008-08-23,-0.05, -1.60, -4.49, 2.41, 1.61, 7.30, repro,
2008-08-24,0.69, -0.23, -1.78, 2.35, 1.57, 7.21, repro,
2008-08-25,0.62, -0.99, -9.71, 2.39, 1.54, 7.12, repro,
2008-08-26,-0.43, -1.13, -8.54, 2.42, 1.57, 7.20, repro,
2008-08-27,-0.03, -1.13, -3.75, 2.37, 1.57, 7.18, repro,
2008-08-28,1.47, -0.90, -6.78, 2.57, 1.72, 7.61, repro,
2008-08-29,-1.45, -0.71, -8.27, 2.35, 1.58, 7.17, repro,
2008-08-30,0.83, -1.83, -9.72, 2.38, 1.55, 7.15, repro,
2008-08-31,-0.66, -1.02, -8.31, 2.49, 1.64, 7.50, repro,
2008-09-01,-0.06, -0.96, -16.31, 2.47, 1.64, 7.47, repro,
2008-09-02,0.76, -1.38, -20.22, 2.49, 1.71, 7.49, repro,
2008-09-03,0.76, -0.05, -12.51, 2.35, 1.58, 7.15, repro,
2008-09-04,1.66, 0.65, -11.70, 2.49, 1.66, 7.66, repro,
2008-09-05,-1.66, -2.75, -11.91, 2.54, 1.66, 7.49, repro,
2008-09-06,-0.08, -0.91, -11.02, 2.67, 1.71, 7.90, repro,
2008-09-07,0.68, 0.61, -13.46, 2.47, 1.66, 7.51, repro,
2008-09-08,0.87, -0.83, -12.20, 2.44, 1.64, 7.48, repro,
2008-09-09,1.13, -0.88, -8.52, 2.41, 1.57, 7.21, repro,
2008-09-10,0.96, 0.63, -7.62, 2.48, 1.66, 7.60, repro,
2008-09-11,0.05, -0.14, -8.90, 2.45, 1.64, 7.40, repro,
2008-09-12,2.69, -0.80, -3.62, 2.48, 1.62, 7.50, repro,
2008-09-13,0.30, 0.20, -4.80, 2.47, 1.65, 7.45, repro,
2008-09-14,1.18, 0.41, -8.36, 2.37, 1.57, 7.15, repro,
2008-09-15,0.65, 0.76, -10.61, 2.38, 1.59, 7.16, repro,
2008-09-16,0.90, -0.80, -11.37, 2.40, 1.61, 7.33, repro,
2008-09-17,1.06, 0.53, -15.11, 2.50, 1.63, 7.48, repro,
2008-09-18,0.81, -0.49, -10.73, 2.49, 1.64, 7.49, repro,
2008-09-19,0.66, -1.05, -2.97, 2.37, 1.56, 7.13, repro,
2008-09-20,0.11, -3.31, -8.17, 2.39, 1.58, 7.18, repro,
2008-09-21,-1.51, -0.08, -9.79, 2.40, 1.58, 7.27, repro,
2008-09-22,-0.38, -2.38, -6.81, 2.48, 1.59, 7.42, repro,
2008-09-23,0.61, -1.14, -11.78, 2.44, 1.61, 7.33, repro,
2008-09-24,0.21, 0.40, -12.91, 2.42, 1.60, 7.32, repro,
2008-09-25,1.10, 0.04, -8.12, 2.46, 1.61, 7.35, repro,
2008-09-26,-0.80, -0.03, -8.85, 2.41, 1.59, 7.22, repro,
2008-09-27,-0.72, -0.18, -9.02, 2.43, 1.61, 7.26, repro,
2008-09-28,1.04, 0.17, -13.75, 2.60, 1.65, 7.60, repro,
2008-09-29,-0.63, 0.53, -10.87, 2.45, 1.63, 7.36, repro,
2008-09-30,-0.23, -0.71, -12.09, 2.38, 1.59, 7.15, repro,
2008-10-01,0.20, 0.20, -13.90, 2.35, 1.54, 7.05, repro,
2008-10-02,-0.14, -0.09, -11.86, 2.42, 1.61, 7.26, repro,
2008-10-03,-0.49, -0.19, -5.78, 2.41, 1.58, 7.23, repro,
2008-10-04,0.11, -1.85, -2.43, 2.39, 1.55, 7.16, repro,
2008-10-05,-2.05, -0.74, -3.45, 2.47, 1.64, 7.47, repro,
2008-10-06,1.13, 0.13, -10.90, 2.35, 1.54, 7.04, repro,
2008-10-07,1.71, 1.14, -8.70, 2.41, 1.55, 7.14, repro,
2008-10-08,1.80, -1.21, -10.40, 2.43, 1.59, 7.21, repro,
2008-10-09,-0.08, -0.81, -14.54, 2.33, 1.56, 7.06, repro,
2008-10-10,0.71, -0.08, -17.29, 2.36, 1.57, 7.20, repro,
2008-10-11,1.43, 0.76, -19.03, 2.34, 1.56, 7.16, repro,
2008-10-12,0.11, 1.03, -14.42, 2.33, 1.54, 7.13, repro,
2008-10-13,0.17, -1.26, -9.90, 2.34, 1.55, 7.10, repro,
2008-10-14,-0.19, -1.21, -17.54, 2.34, 1.56, 7.10, repro,
2008-10-15,0.67, -0.16, -18.23, 2.40, 1.57, 7.32, repro,
2008-10-16,1.30, 0.15, -12.90, 2.37, 1.57, 7.27, repro,
2008-10-17,0.22, 0.24, -16.15, 2.32, 1.58, 7.16, repro,
2008-10-18,2.32, 2.30, -19.03, 2.40, 1.61, 7.36, repro,
2008-10-19,0.61, -1.13, -17.17, 2.41, 1.62, 7.31, repro,
2008-10-20,-0.68, 0.31, -8.11, 2.32, 1.55, 7.10, repro,
2008-10-21,-0.30, 1.34, -13.23, 2.36, 1.58, 7.21, repro,
2008-10-22,-0.11, 1.33, -16.95, 2.35, 1.58, 7.23, repro,
2008-10-23,0.72, 0.61, -8.27, 2.32, 1.56, 7.07, repro,
2008-10-24,1.23, -0.43, -11.40, 2.38, 1.61, 7.25, repro,
2008-10-25,0.24, -1.28, -9.18, 2.33, 1.55, 7.08, repro,
2008-10-26,1.51, 0.16, -19.82, 2.28, 1.52, 6.98, repro,
2008-10-27,0.42, 0.04, -18.57, 2.42, 1.60, 7.39, repro,